• Processing (Info)

  • MPEC 2016-T81 : 2016 TL17

    The following Minor Planet Electronic Circular may be linked-to from your own Web pages, but must not otherwise be redistributed electronically.

    A form allowing access to any MPEC is at the bottom of this page.


    Read MPEC 2016-T80 Read MPEC 2016-T82


    M.P.E.C. 2016-T81                                Issued 2016 Oct. 8, 20:09 UT
    
         The Minor Planet Electronic Circulars contain information on unusual
             minor planets and routine data on comets.  They are published
        on behalf of Division F of the International Astronomical Union by the
              Minor Planet Center, Smithsonian Astrophysical Observatory,
                              Cambridge, MA 02138, U.S.A.
    
                 Prepared using the Tamkin Foundation Computer Network
    
                                  MPC@CFA.HARVARD.EDU
                URL https://www.minorplanetcenter.net/    ISSN 1523-6714
    
                                       2016 TL17
    
    Observations:
         K16T17L* C2016 10 06.46100 00 29 06.343+07 55 42.37         21.6 wLET081F51
         K16T17L  C2016 10 06.47400 00 29 06.081+07 54 43.20         21.7 wLET081F51
         K16T17L  C2016 10 06.48698 00 29 05.806+07 53 43.73         21.9 wLET081F51
         K16T17L KC2016 10 07.23411600 29 01.38 +06 57 03.4          21.9 VuET081H21
         K16T17L KC2016 10 07.24446000 29 01.18 +06 56 16.7          22.1 VuET081H21
         K16T17L KC2016 10 07.25561500 29 00.97 +06 55 25.9          22.3 VuET081H21
         K16T17L _C2016 10 07.43339800 28 59.868+06 42 11.33         21.5 RUET081568
         K16T17L _C2016 10 07.43593300 28 59.817+06 41 59.85         21.4 RUET081568
         K16T17L _C2016 10 07.43973600 28 59.738+06 41 42.64         21.6 RUET081568
         K16T17L KC2016 10 08.24132400 28 54.97 +05 41 04.6          22.1 VuET081H21
         K16T17L KC2016 10 08.25227900 28 54.80 +05 40 15.1          22.3 VuET081H21
         K16T17L KC2016 10 08.26566300 28 54.58 +05 39 14.3          22.3 VuET081H21
    
    Observer details:
    568 Mauna Kea.  Observers R. J. Wainscoat, L. Wells.  Measurers M. Micheli,
        R. J. Wainscoat.  3.6-m Canada-France-Hawaii Telescope + CCD.
    F51 Pan-STARRS 1, Haleakala.  Observers B. Gibson, T. Goggia, S. Kahale,
        A. Schultz, M. Willman.  Measurers K. Chambers, S. Chastel, L. Denneau,
        H. Flewelling, M. Huber, E. Lilly, E. Magnier, R. Wainscoat, C. Waters,
        R. Weryk.  1.8-m Ritchey-Chretien + CCD.
    H21 Astronomical Research Observatory, Westfield.  Observer R. Holmes.
        Measurers S. Foglia, L. Buzzi, T. Linder, R. Holmes.  1.3-m f/4.0
        astrograph + CCD.
    
    Orbital elements:
    2016 TL17                                                Earth MOID = 0.2443 AU
    Epoch 2016 July 31.0 TT = JDT 2457600.5                 MPC
    M 304.84400              (2000.0)            P               Q
    n   0.67178854     Peri.  187.80569     +0.92130316     -0.38001472
    a   1.2911627      Node   195.33891     +0.37146843     +0.92278315
    e   0.0367817      Incl.   18.14889     +0.11494211     +0.06371866
    P   1.47           H   24.0           G   0.15           U   8
    Residuals in seconds of arc
    161006 F51  0.0   0.2+    161007 H21  0.3-  0.1+    161007 568  0.2+  0.1+
    161006 F51  0.1+  0.1+    161007 H21  0.4-  0.1-    161008 H21  0.2-  0.1+
    161006 F51  0.1-  0.2-    161007 568  0.2+  0.0     161008 H21  0.0   0.1+
    161007 H21  0.1-  0.1-    161007 568  0.2+  0.0     161008 H21  0.1+  0.2-
    
    Ephemeris:
    2016 TL17                a,e,i = 1.29, 0.04, 18                  q = 1.2437
    Date    TT    R. A. (2000) Decl.     Delta      r     Elong.  Phase     V
    2016 09 08    00 29 14.1 +35 11 02   0.3158  1.2500   134.7    34.9    23.4
    ...
    2016 09 23    00 31 01.5 +23 44 46   0.2623  1.2464   155.2    19.7    22.6
    ...
    2016 10 01    00 29 56.1 +14 44 26   0.2479  1.2451   168.4     9.3    22.1
    ...
    2016 10 07    00 29 03.2 +07 15 08   0.2459  1.2444   174.2     4.7    21.8
    2016 10 08    00 28 56.7 +05 59 38   0.2464  1.2443   173.5     5.2    21.9
    2016 10 09    00 28 51.2 +04 44 29   0.2471  1.2442   172.4     6.1    21.9
    ...
    2016 10 15    00 28 46.5 -02 29 11   0.2556  1.2438   163.0    13.5    22.3
    ...
    2016 10 23    00 30 14.7 -10 43 56   0.2779  1.2437   150.2    23.5    22.8
    ...
    2016 11 07    00 39 00.3 -20 36 33   0.3439  1.2447   131.2    36.8    23.6
    
    A. U. Tomatic                (C) Copyright 2016 MPC           M.P.E.C. 2016-T81
    

    Read MPEC 2016-T80 Read MPEC 2016-T82


    MPEC number:

    Enter an MPEC number in one of the following forms:

    • 1997-B01 (the full form)
    • J97B01 (the packed version of the full form)
    • B01 (the abbreviated form)